Regional Weather Roundup
Issued by NWS

Home | Current Version | Previous Version | Text Only | Print | Product List | Glossary Off
Versions: 1 2 3 4 5 6 7 8 9 10 11 12 13 14 15 16 17 18 19 20 21 22 23 24 25 26 27 28 29 30 31 32 33 34 35 36 37 38 39 40 41 42 43 44 45 46 47 48 49 50

000
ASUS45 KTFX 221804
RWRMT
MONTANA HOURLY WEATHER ROUNDUP
NATIONAL WEATHER SERVICE GREAT FALLS MT
1204 PM MDT MON SEP 22 2014

NOTE: "FAIR" INDICATES FEW OR NO CLOUDS BELOW 12000 FEET WITH NO
SIGNIFICANT WEATHER AND/OR OBSTRUCTIONS TO VISIBILITY.

* THESE STATIONS ARE NOT UNDER NWS QUALITY CONTROL. THEY DO NOT
   REPORT WEATHER SUCH AS PRECIPITATION OR FOG.

MTZ001>007-043-221900-
WEST OF THE DIVIDE
CITY           SKY/WX    TMP DP  RH WIND       PRES   REMARKS
KALISPELL      SUNNY     70  46  42 NE5       29.96F
MISSOULA       PTSUNNY   70  43  38 CALM      30.00F
BUTTE          CLOUDY    63  46  54 CALM      30.12S
MULLAN PASS    PTCLDY    66  39  37 VRB7      30.13R
* ESSEX        N/A       65  44  47 N2         N/A
* LINCOLN      N/A       58  41  53 E2         N/A
* POLSON       N/A       69  51  53 SW3        N/A
* RONAN APT    PTSUNNY   70  48  46 N/A        N/A
* SEELEY LAKE  N/A       70  43  38 W2         N/A
* THOMP F APT  PTCLDY    53  51  93 S8G15      N/A
$$

MTZ008-052>055-221900-
SOUTHWEST MONTANA
CITY           SKY/WX    TMP DP  RH WIND       PRES   REMARKS
BOZEMAN        CLOUDY    64  50  61 N3        30.07F
DILLON         CLOUDY    57  54  90 SW8       30.12S
W YELLOWSTONE  CLOUDY    55  48  77 SW9       30.21S
* THREE FORKS  CLOUDY    63  41  45 N/A        N/A
* BOULDER HILL N/A       60  46  60 SW12       N/A
* MONIDA PASS  N/A       53  51  93 SE5        N/A
* RAYNOLDS PAS N/A       58  36  44 SE9        N/A
* WHITEHALL    N/A       61  53  75 SW7G13     N/A
* WISE RIVER   N/A       54  42  64 W1         N/A
$$

MTZ009>010-012-014-046-048-049-054-221900-
EAST SLOPES AND CENTRAL MONTANA
CITY           SKY/WX    TMP DP  RH WIND       PRES   REMARKS
CUT BANK       PTCLDY    77  48  36 VRB3      29.92F
GREAT FALLS    PTCLDY    75  50  42 W12       29.92F
HELENA         PTSUNNY   70  46  42 CALM      30.01F
MALMSTROM AFB  PTCLDY    75  48  39 W12       29.92F
* CONRAD       SUNNY     73  55  53 N/A        N/A
* EAST GLACIER N/A       74  42  32 W15G20     N/A
* MONARCH      N/A       70  42  36 SW8G16     N/A
* PENDROY      N/A       80  51  36 S1         N/A
* ROGERS PASS  N/A       66  41  40 E4G9       N/A
* SAINT MARY   N/A       76  41  29 S8G15      N/A
* SWEET GRASS  N/A       72  48  43 S9         N/A
$$

MTZ011-013-016-021-035-040-045-047-050-051-221900-
NORTH CENTRAL MONTANA
CITY           SKY/WX    TMP DP  RH WIND       PRES   REMARKS
HAVRE          SUNNY     70  46  42 CALM      29.88F
LEWISTOWN      PTCLDY    75  46  36 NW6       29.96F
* CHESTER      N/A       68  47  47 SW4        N/A
* DENTON       N/A       76  48  37 NE1        N/A
* GEYSER       N/A       78  42  28 W10G17     N/A
* JUDITH GAP   N/A       77  50  39 NW2        N/A
* LOMA         N/A       70  49  47 S3         N/A
$$

MTZ017>020-022>027-061-062-221900-
NORTHEAST MONTANA
CITY           SKY/WX    TMP DP  RH WIND       PRES   REMARKS
GLASGOW        SUNNY     70  45  41 SE14G21   29.91F
GLENDIVE       SUNNY     72  46  40 E3        29.96F
JORDAN         SUNNY     75  46  36 S6        29.90F
SIDNEY         SUNNY     75  46  36 E3        29.96F
WOLF POINT     SUNNY     75  46  36 E8        29.92F
* BEAVER HILL  N/A       76  44  32 SE12G19    N/A
* CIRCLE       N/A       75  49  40 SE6        N/A
* LINDSAY DVD  N/A       75  44  33 SE17G22    N/A
* NAVAJO       N/A       74  44  34 S10        N/A
$$

MTZ028>042-056>058-221900-
SOUTHCENTRAL AND SOUTHEAST MONTANA
CITY           SKY/WX    TMP DP  RH WIND       PRES   REMARKS
BAKER          PTSUNNY   66  45  47 SE13      29.98F
BILLINGS       PTSUNNY   73  52  48 S9        29.96F
LIVINGSTON     CLOUDY    68  48  49 SW22G30   30.04S
MILES CITY     PTSUNNY   72  46  40 SE8       29.92F
* LAUREL APT   PTSUNNY   73  48  41 S9         N/A
* ROUNDUP APT  PTCLDY    73  46  38 SW13G18    N/A
* ALZADA       N/A       74  46  37 E4G9       N/A
* HYSHAM       N/A       72  47  41 S3         N/A
* LAME DEER    N/A       72  47  41 NW5        N/A
* REED POINT   N/A       71  50  48 W6         N/A
* ROSCOE HILL  N/A       72  40  31 N8G14      N/A
$$

REGIONAL REPORTS...DAKOTAS
CITY           SKY/WX    TMP DP  RH WIND       PRES   REMARKS
WILLISTON      SUNNY     73  43  34 SE8       29.96F
DICKINSON      SUNNY     72  46  40 SE12      29.99F
BEACH          N/A       72  45  38 SE14      29.98F
CROSBY         SUNNY     75  43  32 SE9       29.97F
TIOGA          SUNNY     73  45  37 SE14      30.02F
WATFORD CITY   SUNNY     72  45  38 SE8       29.96F
BISMARCK       SUNNY     79  45  30 S17       30.05F
GRAND FORKS    SUNNY     75  48  39 SW8       30.10F
FARGO          SUNNY     73  48  41 SW15      30.14F
RAPID CITY     PTCLDY    75  46  36 S21G28    30.00F
$$

REGIONAL REPORTS...WYOMING/IDAHO/WASHINGTON
CITY           SKY/WX    TMP DP  RH WIND       PRES   REMARKS
GILLETTE       PTCLDY    75  48  39 S14       29.99F
SHERIDAN       PTCLDY    73  48  41 CALM      29.97F
CODY           PTCLDY    72  43  35 W14G25    30.05S
YELLOWSTONE LA PTSUNNY   52  46  80 VRB3      30.28S
SALMON         PTSUNNY   70  52  53 CALM      30.07F
MULLAN PASS    PTCLDY    66  39  37 VRB7      30.13S
SAND POINT     PTCLDY    68  50  53 CALM      29.96F
SPOKANE        PTSUNNY   73  45  37 SW5       29.96S

$$




USA.gov is the U.S. government's official web portal to all federal, state and local government web resources and services.